Dewpoint
31 29 22 16 17 19 21 24 26 28 22 23 24 24 24 25 25 16 16 11 14 17 18 20 24 26 29 29 30 30 34 35 36 36 36 35 34 35 33 34 33 32 32 34
31 26 17 18 19 21 23 26 30 27 24 24 24 24 25 24 23 24 20 18 14 15 15 19 23 24 27 28 29 35 35 34 35 35 37 35 34 34 34 34 33 33 32 32
26 19 18 19 21 22 28 26 23 21 24 27 25 28 21 13 10 12 14 19 18 12 12 17 18 22 25 26 34 36 35 35 36 35 36 36 36 36 35 34 34 34 31 31
25 20 21 22 22 23 25 22 22 24 23 23 26 21 24 15 8 10 18 15 17 20 10 15 17 20 23 29 36 36 36 36 35 35 35 33 34 33 34 33 33 32 30 30
29 24 23 26 22 22 25 24 23 24 21 22 23 21 31 17 14 13 17 16 18 19 21 16 16 20 23 36 37 37 36 35 35 35 34 33 33 34 33 32 30 30 31 28
22 20 24 22 23 22 23 28 30 24 23 22 22 21 27 19 15 9 14 14 17 18 20 16 18 22 33 37 38 38 36 34 34 34 33 31 31 31 30 30 30 31 29 28
27 23 23 23 26 25 27 30 26 24 25 25 22 19 26 20 17 12 13 15 16 15 15 16 19 24 35 37 38 38 35 35 33 32 32 31 29 28 28 29 30 28 27 27
26 25 25 21 28 27 24 29 25 16 21 22 20 19 29 14 12 8 14 16 18 17 18 17 23 29 33 37 37 35 33 33 33 31 31 31 29 30 30 29 29 27 27 27
26 26 20 19 20 26 25 26 22 21 20 19 23 25 21 18 10 8 14 19 20 19 19 20 25 29 33 35 36 34 32 32 31 31 31 31 31 30 29 28 27 27 26 26
28 25 24 19 23 22 29 25 23 26 19 21 22 21 24 20 13 10 17 19 22 23 25 26 29 31 32 32 34 33 31 30 30 31 30 30 30 29 29 28 26 26 26 25
31 28 24 21 23 24 21 23 22 26 23 18 17 23 33 30 30 30 27 23 23 24 25 27 28 29 30 31 33 33 31 30 30 30 30 29 30 30 29 28 27 26 25 25
26 32 27 28 21 22 24 33 27 26 22 27 28 25 30 29 27 27 27 30 31 32 33 31 26 27 27 29 31 30 29 29 28 28 28 29 29 29 29 28 27 26 25 25
26 28 21 24 23 21 20 23 27 29 25 25 25 25 30 28 33 34 34 33 33 34 34 34 30 29 28 27 26 25 25 26 27 28 28 28 28 27 27 27 27 27 26 25
31 28 25 21 22 26 23 27 28 27 27 24 27 28 30 33 34 31 25 28 30 31 31 29 29 26 24 24 24 24 25 26 27 28 27 27 27 27 26 26 27 26 26 25
28 21 26 29 29 28 28 31 31 29 29 28 27 29 31 30 27 24 20 24 25 28 30 28 29 27 27 28 28 27 27 27 27 26 27 27 27 27 27 26 26 26 26 25
29 27 27 28 29 29 27 29 29 29 30 32 32 31 29 29 27 29 28 24 23 28 29 28 30 29 29 29 29 29 28 28 27 27 27 27 27 27 27 26 26 25 25 25
26 27 26 25 28 30 26 26 27 23 21 22 27 26 27 25 27 28 26 27 29 30 31 30 29 30 30 30 28 27 28 28 27 27 27 27 27 26 26 25 25 24 24 24
27 26 28 24 27 19 20 23 24 24 21 24 27 22 23 26 29 32 29 25 31 31 30 29 27 28 29 27 27 26 27 27 27 27 27 27 26 26 25 25 24 24 23 23
30 28 26 23 24 24 24 20 20 17 19 28 26 25 25 28 30 29 32 31 29 28 26 25 25 26 26 25 25 25 26 26 26 25 25 25 25 24 24 23 23 23 23 22
27 29 26 24 20 13 18 19 21 22 15 31 30 29 29 30 23 26 32 30 31 32 29 26 28 28 28 27 27 25 25 24 24 24 24 25 25 24 23 24 24 23 23 24
22 23 21 20 21 20 19 25 27 17 21 29 27 28 26 21 27 29 32 32 32 31 25 25 24 25 25 25 23 24 23 22 23 24 24 24 22 22 22 21 21 23 24 23
17 17 16 19 14 16 30 28 21 28 29 28 24 21 18 22 25 26 28 28 28 28 25 25 24 25 23 21 20 21 21 22 22 22 22 21 22 21 20 20 20 21 20 20
15 21 17 19 20 32 32 30 30 28 27 27 23 22 22 25 27 28 26 26 26 25 22 20 19 23 20 15 14 18 19 22 20 20 20 20 20 19 19 20 21 21 20 20
21 26 20 21 27 28 29 28 25 27 25 28 30 30 28 23 25 26 24 21 18 16 16 14 15 14 15 10 11 15 18 20 19 19 19 19 19 20 19 19 19 19 19 20
22 28 25 22 28 28 25 20 24 26 27 26 24 23 21 20 22 21 20 19 15 14 12 9 8 11 10 8 8 11 15 18 19 19 19 19 20 19 20 20 20 20 21 23
23 21 21 23 25 25 19 21 23 22 21 21 20 20 21 19 17 19 18 18 14 14 8 9 4 4 9 9 8 9 10 16 18 18 18 18 19 19 20 20 20 23 23 23
Lifted_Index
4 3 3 4 5 5 4 4 4 5 6 6 5 5 6 6 7 8 8 9 10 11 13 15 14 13 12 12 12 12 13 13 14 14 14 15 16 16 17 17 18 19 19 19
3 3 4 5 5 5 4 4 4 5 6 5 5 5 5 6 7 8 8 9 10 12 13 15 14 13 12 12 12 13 13 13 13 14 14 15 16 16 17 17 17 18 19 19
3 3 4 5 4 4 4 4 4 4 5 5 4 4 4 5 6 7 9 10 11 12 13 14 14 13 12 12 12 13 13 13 13 13 14 15 15 16 16 16 17 18 18 18
3 3 4 4 4 4 4 5 5 5 4 4 3 3 4 5 6 7 8 9 11 12 13 14 14 14 13 13 13 13 14 14 13 13 14 14 15 15 15 16 16 17 18 18
3 4 4 4 4 5 5 6 6 5 4 3 3 3 3 4 5 6 7 8 10 11 12 13 14 14 14 14 13 14 14 14 13 13 14 14 14 15 15 15 16 16 17 17
4 4 5 5 5 6 6 6 5 4 3 3 3 3 3 4 5 5 6 7 9 10 12 13 14 15 14 14 14 14 14 14 13 13 13 14 14 14 15 15 15 16 16 16
3 4 5 6 6 6 6 5 3 2 2 2 3 3 3 4 5 6 6 7 9 10 11 12 14 14 14 14 14 14 14 13 13 13 13 13 14 14 14 14 15 15 15 15
2 3 5 6 6 6 5 4 3 2 1 2 3 3 4 5 5 6 6 7 8 10 11 12 13 14 13 13 13 13 13 13 13 13 13 13 13 13 13 14 14 14 14 15
2 3 5 6 7 6 6 5 4 3 2 2 3 4 4 4 5 5 6 7 8 9 10 12 13 13 13 12 12 13 13 12 12 13 13 13 13 13 13 14 14 14 14 14
4 4 5 6 7 6 6 5 5 4 2 1 2 3 4 4 4 5 6 8 9 9 10 11 12 12 12 12 12 12 12 12 12 12 13 13 13 13 13 13 13 14 14 14
6 5 5 6 6 6 6 5 4 4 3 2 2 3 4 4 5 6 7 8 9 9 9 10 11 12 12 12 12 12 12 12 12 12 12 12 12 12 13 13 13 13 14 14
6 5 4 4 5 6 5 5 4 4 4 3 3 4 4 4 5 6 7 8 8 8 9 10 11 11 11 11 12 12 12 11 11 12 11 11 11 11 12 12 12 12 12 12
7 5 3 3 5 5 5 4 4 4 4 4 3 4 4 4 5 6 7 8 8 9 9 10 10 11 11 11 11 11 11 11 10 10 10 10 10 11 11 11 11 11 11 11
6 5 4 3 4 5 5 5 5 4 4 3 4 4 4 5 6 6 7 8 9 9 9 9 9 9 9 10 10 10 10 10 10 10 10 10 10 10 11 11 11 11 11 11
6 5 5 5 5 5 5 5 5 4 4 4 4 4 5 5 6 7 8 9 9 9 9 9 8 8 8 9 9 9 10 10 10 10 10 10 10 10 10 10 10 10 10 10
6 6 5 5 6 6 6 6 5 5 5 5 5 5 5 6 6 7 8 8 8 7 8 8 8 7 8 9 10 10 10 11 11 10 10 10 10 10 10 10 10 10 10 10
7 6 5 5 6 6 6 6 6 6 5 5 5 5 6 6 6 6 7 6 6 6 7 7 8 8 9 9 10 10 10 10 10 9 9 9 9 9 9 9 9 9 9 9
8 7 6 5 5 5 6 6 6 5 5 5 5 5 6 6 6 6 6 6 6 6 6 7 8 8 9 9 9 9 9 9 9 8 8 8 9 9 9 9 9 9 9 9
8 7 6 5 5 5 5 6 6 5 5 6 6 6 6 6 6 6 6 6 6 6 7 7 8 8 8 8 8 8 8 8 8 8 8 8 9 9 9 9 9 9 9 9
8 7 6 5 5 5 6 6 6 5 5 6 6 6 5 5 5 5 6 6 6 6 7 7 6 6 6 7 7 7 7 7 7 8 8 9 9 9 9 9 9 10 10 10
7 7 7 6 5 5 5 6 6 5 5 6 6 6 6 5 5 5 6 6 6 5 5 5 5 5 5 6 6 6 7 7 8 8 9 9 9 10 10 10 10 10 10 11
8 8 7 6 5 5 5 5 5 5 6 6 7 7 7 6 6 6 5 5 4 4 4 4 4 5 5 6 6 6 7 7 8 9 9 9 10 10 11 11 11 11 11 11
8 7 7 6 5 5 5 5 5 6 7 7 7 7 7 7 6 6 5 5 4 4 4 4 5 5 5 6 7 7 7 8 9 9 9 10 11 11 11 12 12 12 11 11
7 7 6 5 5 4 5 5 6 6 7 7 7 7 7 7 7 6 6 6 5 5 5 5 5 5 5 6 7 8 8 9 9 10 10 11 11 11 12 12 12 12 12 11
6 6 5 5 4 4 5 6 6 6 7 7 7 8 7 7 7 7 6 6 6 5 5 5 5 5 5 6 7 8 9 10 10 10 11 11 12 12 12 12 12 12 12 12
6 5 5 4 4 4 5 5 6 6 7 7 7 7 7 7 7 7 7 6 6 5 5 4 4 5 6 6 7 9 10 10 11 11 11 11 12 12 12 11 11 12 12 12